| time (UTC) | temp F | wind direction | speed knots | gust knots | rain 1hr in | rain 24hr in | rain mn in | humidity % | barometer mb |
| 20260505064451 | 62 | 73 | 1.7 | 3.5 | 0.00 | 0.00 | 0.00 | 83 | 1014.6 |
| 20260505063951 | 62 | 77 | 2.6 | 4.3 | 0.00 | 0.00 | 0.00 | 83 | 1014.7 |
| 20260505063451 | 62 | 63 | 2.6 | 4.3 | 0.00 | 0.00 | 0.00 | 83 | 1014.6 |
| 20260505062951 | 62 | 68 | 2.6 | 4.3 | 0.00 | 0.00 | 0.00 | 83 | 1014.6 |
| 20260505062451 | 62 | 70 | 3.5 | 4.3 | 0.00 | 0.00 | 0.00 | 83 | 1014.5 |
| 20260505061951 | 62 | 67 | 1.7 | 2.6 | 0.00 | 0.00 | 0.00 | 84 | 1014.5 |
| 20260505061451 | 61 | 64 | 2.6 | 5.2 | 0.00 | 0.00 | 0.00 | 84 | 1014.5 |
| 20260505060951 | 61 | 58 | 1.7 | 3.5 | 0.00 | 0.00 | 0.00 | 84 | 1014.6 |
| 20260505060452 | 61 | 86 | 2.6 | 3.5 | 0.00 | 0.00 | 0.00 | 84 | 1014.5 |
| 20260505055952 | 62 | 78 | 2.6 | 4.3 | 0.00 | 0.00 | 0.00 | 84 | 1014.5 |
| 20260505055452 | 62 | 68 | 0.9 | 2.6 | 0.00 | 0.00 | 0.00 | 85 | 1014.4 |
| 20260505054952 | 62 | 74 | 1.7 | 2.6 | 0.00 | 0.00 | 0.00 | 85 | 1014.3 |
| 20260505054452 | 61 | 67 | 2.6 | 5.2 | 0.00 | 0.00 | 0.00 | 85 | 1014.1 |
| 20260505053952 | 61 | 62 | 4.3 | 5.2 | 0.00 | 0.00 | 0.00 | 85 | 1014.1 |
| 20260505053452 | 62 | 63 | 2.6 | 4.3 | 0.00 | 0.00 | 0.00 | 85 | 1013.9 |
| 20260505052952 | 61 | 71 | 3.5 | 4.3 | 0.00 | 0.00 | 0.00 | 85 | 1014.0 |
| 20260505052452 | 61 | 63 | 4.3 | 7.0 | 0.00 | 0.00 | 0.00 | 86 | 1014.0 |
| 20260505051952 | 61 | 67 | 3.5 | 6.1 | 0.00 | 0.00 | 0.00 | 86 | 1014.0 |
| 20260505051452 | 61 | 64 | 2.6 | 4.3 | 0.00 | 0.00 | 0.00 | 86 | 1014.0 |
| 20260505050952 | 61 | 68 | 3.5 | 7.0 | 0.00 | 0.00 | 0.00 | 87 | 1014.0 |
| 20260505050453 | 61 | 61 | 2.6 | 4.3 | 0.00 | 0.00 | 0.00 | 87 | 1014.0 |
| 20260505041453 | 60 | 63 | 3.5 | 5.2 | 0.00 | 0.00 | 0.00 | 91 | 1014.0 |
| 20260505040953 | 60 | 64 | 3.5 | 4.3 | 0.00 | 0.00 | 0.00 | 92 | 1014.0 |
| 20260505040453 | 60 | 64 | 4.3 | 5.2 | 0.00 | 0.00 | 0.00 | 92 | 1014.0 |
| 20260505035954 | 60 | 61 | 2.6 | 4.3 | 0.00 | 0.00 | 0.00 | 92 | 1014.0 |
| 20260505035454 | 60 | 55 | 3.5 | 4.3 | 0.00 | 0.00 | 0.00 | 92 | 1014.0 |
| 20260505034954 | 60 | 66 | 2.6 | 4.3 | 0.00 | 0.00 | 0.00 | 92 | 1014.1 |
| 20260505034454 | 60 | 61 | 4.3 | 5.2 | 0.00 | 0.00 | 0.00 | 93 | 1014.1 |
| 20260505033954 | 60 | 65 | 2.6 | 5.2 | 0.00 | 0.00 | 0.00 | 93 | 1013.9 |
| 20260505033454 | 60 | 56 | 1.7 | 2.6 | 0.00 | 0.00 | 0.00 | 93 | 1014.0 |
| 20260505032954 | 60 | 62 | 2.6 | 4.3 | 0.00 | 0.00 | 0.00 | 93 | 1014.0 |
| 20260505032454 | 60 | 58 | 3.5 | 5.2 | 0.00 | 0.00 | 0.00 | 93 | 1014.1 |
| 20260505031954 | 60 | 36 | 0.9 | 3.5 | 0.00 | 0.00 | 0.00 | 93 | 1014.1 |
| 20260505031454 | 60 | 58 | 1.7 | 4.3 | 0.00 | 0.00 | 0.00 | 93 | 1014.1 |
| 20260505030954 | 60 | 61 | 0.9 | 1.7 | 0.00 | 0.00 | 0.00 | 93 | 1014.2 |
| 20260505030455 | 60 | 74 | 1.7 | 4.3 | 0.00 | 0.00 | 0.00 | 93 | 1014.2 |
| 20260505025955 | 60 | 72 | 1.7 | 3.5 | 0.00 | 0.00 | 0.00 | 93 | 1014.3 |
| 20260505025455 | 60 | 68 | 0.9 | 2.6 | 0.00 | 0.00 | 0.00 | 92 | 1014.3 |
| 20260505024955 | 60 | 79 | 2.6 | 4.3 | 0.00 | 0.00 | 0.00 | 92 | 1014.3 |
| 20260505024455 | 60 | 69 | 1.7 | 4.3 | 0.00 | 0.00 | 0.00 | 92 | 1014.3 |
| 20260505023955 | 60 | 61 | 0.0 | 0.9 | 0.00 | 0.00 | 0.00 | 92 | 1014.3 |
| 20260505023455 | 60 | 71 | 1.7 | 4.3 | 0.00 | 0.00 | 0.00 | 92 | 1014.3 |
| 20260505022955 | 60 | 66 | 0.9 | 1.7 | 0.00 | 0.00 | 0.00 | 92 | 1014.4 |
| 20260505022455 | 59 | 67 | 0.9 | 0.9 | 0.00 | 0.00 | 0.00 | 92 | 1014.4 |
| 20260505021955 | 59 | 70 | 1.7 | 2.6 | 0.00 | 0.00 | 0.00 | 92 | 1014.5 |
| 20260505021455 | 59 | 65 | 0.9 | 3.5 | 0.00 | 0.00 | 0.00 | 92 | 1014.5 |
| 20260505020955 | 59 | 71 | 0.9 | 2.6 | 0.00 | 0.00 | 0.00 | 91 | 1014.6 |
| 20260505020455 | 59 | 69 | 1.7 | 3.5 | 0.00 | 0.00 | 0.00 | 91 | 1014.7 |
| 20260505015956 | 59 | 76 | 0.9 | 2.6 | 0.00 | 0.00 | 0.00 | 90 | 1014.7 |
| 20260505015456 | 59 | 68 | 1.7 | 3.5 | 0.00 | 0.00 | 0.00 | 90 | 1014.7 |
| 20260505014956 | 59 | 65 | 2.6 | 4.3 | 0.00 | 0.00 | 0.00 | 89 | 1014.8 |
| 20260505014456 | 59 | 64 | 0.9 | 1.7 | 0.00 | 0.00 | 0.00 | 88 | 1014.7 |
| 20260505013956 | 59 | 76 | 0.9 | 3.5 | 0.00 | 0.00 | 0.00 | 88 | 1014.8 |
| 20260505013456 | 59 | 77 | 1.7 | 2.6 | 0.00 | 0.00 | 0.00 | 87 | 1014.7 |
| 20260505012956 | 59 | 79 | 1.7 | 4.3 | 0.00 | 0.00 | 0.00 | 86 | 1014.7 |
| 20260505012456 | 59 | 69 | 1.7 | 2.6 | 0.00 | 0.00 | 0.00 | 86 | 1014.7 |
| 20260505011956 | 59 | 65 | 1.7 | 4.3 | 0.00 | 0.00 | 0.00 | 86 | 1014.8 |
| 20260505011456 | 59 | 73 | 0.9 | 3.5 | 0.00 | 0.00 | 0.00 | 85 | 1014.8 |
| 20260505010955 | 59 | 67 | 0.9 | 1.7 | 0.00 | 0.00 | 0.00 | 85 | 1014.8 |
| 20260505010455 | 59 | 67 | 2.6 | 3.5 | 0.00 | 0.00 | 0.00 | 86 | 1014.9 |
| 20260505005955 | 59 | 72 | 2.6 | 3.5 | 0.00 | 0.00 | 0.00 | 86 | 1015.1 |
| 20260505005454 | 59 | 67 | 1.7 | 4.3 | 0.00 | 0.00 | 0.00 | 86 | 1015.3 |
| 20260505004954 | 59 | 76 | 2.6 | 3.5 | 0.00 | 0.00 | 0.00 | 85 | 1015.3 |
| 20260505004453 | 59 | 68 | 1.7 | 2.6 | 0.00 | 0.00 | 0.00 | 85 | 1015.5 |
| 20260505003953 | 59 | 68 | 1.7 | 2.6 | 0.00 | 0.00 | 0.00 | 85 | 1015.5 |
| 20260505003453 | 59 | 71 | 0.9 | 1.7 | 0.00 | 0.00 | 0.00 | 84 | 1015.5 |
| 20260505002952 | 59 | 71 | 0.0 | 0.9 | 0.00 | 0.00 | 0.00 | 84 | 1015.6 |
| 20260505002452 | 59 | 69 | 0.9 | 2.6 | 0.00 | 0.00 | 0.00 | 84 | 1015.6 |
| 20260505001951 | 59 | 60 | 1.7 | 2.6 | 0.00 | 0.00 | 0.00 | 84 | 1015.6 |
| 20260505001451 | 59 | 58 | 1.7 | 2.6 | 0.00 | 0.00 | 0.00 | 84 | 1015.6 |
| 20260505000950 | 59 | 53 | 1.7 | 2.6 | 0.00 | 0.00 | 0.00 | 83 | 1015.6 |
| 20260505000450 | 60 | 67 | 1.7 | 2.6 | 0.00 | 0.00 | 0.00 | 83 | 1015.7 |
| 20260504235950 | 60 | 70 | 0.9 | 1.7 | 0.00 | 0.00 | 0.00 | 82 | 1015.7 |
| 20260504235449 | 60 | 65 | 2.6 | 3.5 | 0.00 | 0.00 | 0.00 | 82 | 1015.7 |
| 20260504235235 | 60 | 66 | 1.7 | 3.5 | 0.00 | 0.00 | 0.00 | 80 | 1015.8 |
| 20260504234949 | 60 | 75 | 1.7 | 4.3 | 0.00 | 0.00 | 0.00 | 82 | 1015.8 |
| 20260504234448 | 60 | 69 | 2.6 | 4.3 | 0.00 | 0.00 | 0.00 | 81 | 1015.8 |
| 20260504233948 | 60 | 66 | 1.7 | 3.5 | 0.00 | 0.00 | 0.00 | 80 | 1015.8 |
| 20260504233448 | 60 | 78 | 2.6 | 3.5 | 0.00 | 0.00 | 0.00 | 79 | 1015.9 |
| 20260504232947 | 60 | 71 | 1.7 | 3.5 | 0.00 | 0.00 | 0.00 | 79 | 1016.0 |
| 20260504232447 | 60 | 65 | 1.7 | 2.6 | 0.00 | 0.00 | 0.00 | 78 | 1016.0 |
| 20260504231946 | 61 | 65 | 1.7 | 4.3 | 0.00 | 0.00 | 0.00 | 76 | 1016.1 |
| 20260504231446 | 61 | 68 | 1.7 | 3.5 | 0.00 | 0.00 | 0.00 | 76 | 1016.2 |
| 20260504230946 | 61 | 73 | 1.7 | 3.5 | 0.00 | 0.00 | 0.00 | 75 | 1016.3 |
| 20260504230447 | 61 | 72 | 1.7 | 4.3 | 0.00 | 0.00 | 0.00 | 75 | 1016.3 |
| 20260504225947 | 61 | 71 | 2.6 | 4.3 | 0.00 | 0.00 | 0.00 | 75 | 1016.4 |
| 20260504225447 | 61 | 66 | 2.6 | 4.3 | 0.00 | 0.00 | 0.00 | 75 | 1016.4 |
| 20260504224947 | 61 | 68 | 3.5 | 4.3 | 0.00 | 0.00 | 0.00 | 75 | 1016.4 |
| 20260504224447 | 62 | 71 | 2.6 | 5.2 | 0.00 | 0.00 | 0.00 | 74 | 1016.5 |
| 20260504223947 | 62 | 67 | 2.6 | 4.3 | 0.00 | 0.00 | 0.00 | 75 | 1016.4 |
| 20260504223447 | 62 | 64 | 1.7 | 3.5 | 0.00 | 0.00 | 0.00 | 75 | 1016.5 |
| 20260504222947 | 62 | 67 | 2.6 | 4.3 | 0.00 | 0.00 | 0.00 | 75 | 1016.6 |
| 20260504222447 | 62 | 65 | 2.6 | 3.5 | 0.00 | 0.00 | 0.00 | 74 | 1016.6 |
| 20260504221947 | 62 | 71 | 1.7 | 3.5 | 0.00 | 0.00 | 0.00 | 74 | 1016.5 |
| 20260504221447 | 62 | 66 | 2.6 | 2.6 | 0.00 | 0.00 | 0.00 | 73 | 1016.5 |
| 20260504220946 | 62 | 65 | 2.6 | 3.5 | 0.00 | 0.00 | 0.00 | 73 | 1016.6 |
| 20260504220446 | 62 | 66 | 1.7 | 2.6 | 0.00 | 0.00 | 0.00 | 72 | 1016.6 |
| 20260504215946 | 62 | 58 | 1.7 | 2.6 | 0.00 | 0.00 | 0.00 | 72 | 1016.6 |
| 20260504215445 | 62 | 63 | 2.6 | 3.5 | 0.00 | 0.00 | 0.00 | 71 | 1016.7 |
| 20260504214945 | 62 | 64 | 2.6 | 3.5 | 0.00 | 0.00 | 0.00 | 71 | 1016.6 |
| 20260504214444 | 62 | 62 | 2.6 | 3.5 | 0.00 | 0.00 | 0.00 | 70 | 1016.7 |
| 20260504213944 | 62 | 62 | 0.9 | 2.6 | 0.00 | 0.00 | 0.00 | 70 | 1016.6 |
| 20260504213444 | 62 | 51 | 1.7 | 2.6 | 0.00 | 0.00 | 0.00 | 69 | 1016.8 |
| 20260504213030 | 62 | 57 | 0.9 | 1.7 | 0.00 | 0.00 | 0.00 | 69 | 1016.7 |
| 20260504212943 | 62 | 57 | 0.9 | 1.7 | 0.00 | 0.00 | 0.00 | 69 | 1016.7 |
| 20260504212443 | 63 | 57 | 0.9 | 1.7 | 0.00 | 0.00 | 0.00 | 69 | 1016.7 |
| 20260504211942 | 63 | 61 | 0.0 | 0.9 | 0.00 | 0.00 | 0.00 | 68 | 1016.6 |
| 20260504210941 | 63 | 64 | 1.7 | 2.6 | 0.00 | 0.00 | 0.00 | 68 | 1016.6 |
| 20260504210441 | 63 | 58 | 1.7 | 2.6 | 0.00 | 0.00 | 0.00 | 68 | 1016.7 |
| 20260504205941 | 63 | 64 | 1.7 | 3.5 | 0.00 | 0.00 | 0.00 | 68 | 1016.6 |
| 20260504205440 | 63 | 65 | 0.0 | 1.7 | 0.00 | 0.00 | 0.00 | 68 | 1016.6 |
| 20260504204940 | 63 | 309 | 0.9 | 1.7 | 0.00 | 0.00 | 0.00 | 68 | 1016.7 |
| 20260504204449 | 64 | 345 | 1.7 | 2.6 | 0.00 | 0.00 | 0.00 | 67 | 1016.6 |
| 20260504203939 | 64 | 66 | 0.9 | 0.9 | 0.00 | 0.00 | 0.00 | 66 | 1016.5 |
| 20260504203439 | 64 | 108 | 0.0 | 0.9 | 0.00 | 0.00 | 0.00 | 65 | 1016.5 |
| 20260504202938 | 64 | 108 | 0.0 | 0.9 | 0.00 | 0.00 | 0.00 | 65 | 1016.4 |
| 20260504202438 | 65 | 108 | 0.9 | 1.7 | 0.00 | 0.00 | 0.00 | 64 | 1016.4 |
| 20260504201937 | 65 | 108 | 0.9 | 1.7 | 0.00 | 0.00 | 0.00 | 63 | 1016.3 |
| 20260504201437 | 65 | 108 | 0.9 | 0.9 | 0.00 | 0.00 | 0.00 | 63 | 1016.3 |
| 20260504200937 | 65 | 108 | 0.9 | 1.7 | 0.00 | 0.00 | 0.00 | 62 | 1016.3 |
| 20260504200436 | 65 | 108 | 0.0 | 0.9 | 0.00 | 0.00 | 0.00 | 62 | 1016.3 |
| 20260504195936 | 65 | 108 | 0.9 | 1.7 | 0.00 | 0.00 | 0.00 | 62 | 1016.4 |
| 20260504195435 | 65 | 108 | 1.7 | 1.7 | 0.00 | 0.00 | 0.00 | 61 | 1016.4 |
| 20260504194935 | 66 | 108 | 0.9 | 0.9 | 0.00 | 0.00 | 0.00 | 61 | 1016.4 |
| 20260504194434 | 66 | 108 | 0.0 | 0.9 | 0.00 | 0.00 | 0.00 | 61 | 1016.4 |
| 20260504193934 | 65 | 108 | 0.0 | 0.0 | 0.00 | 0.00 | 0.00 | 61 | 1016.3 |
| 20260504193434 | 65 | 108 | 0.0 | 0.0 | 0.00 | 0.00 | 0.00 | 61 | 1016.3 |
| 20260504192933 | 65 | 108 | 0.0 | 0.0 | 0.00 | 0.00 | 0.00 | 61 | 1016.3 |
| 20260504192433 | 66 | 108 | 0.0 | 0.9 | 0.00 | 0.00 | 0.00 | 62 | 1016.2 |
| 20260504191932 | 66 | 108 | 0.0 | 0.9 | 0.00 | 0.00 | 0.00 | 62 | 1016.2 |
| 20260504191432 | 66 | 103 | 0.0 | 0.9 | 0.00 | 0.00 | 0.00 | 62 | 1016.1 |
| 20260504190932 | 66 | 128 | 0.0 | 0.9 | 0.00 | 0.00 | 0.00 | 63 | 1016.1 |
| 20260504190432 | 66 | 102 | 0.9 | 0.9 | 0.00 | 0.00 | 0.00 | 63 | 1016.1 |
| 20260504185932 | 67 | 98 | 0.0 | 0.9 | 0.00 | 0.00 | 0.00 | 64 | 1015.9 |
| 20260504185430 | 67 | 90 | 0.0 | 0.9 | 0.00 | 0.00 | 0.00 | 64 | 1015.9 |
| 20260504184930 | 67 | 104 | 0.9 | 2.6 | 0.00 | 0.00 | 0.00 | 65 | 1015.9 |
| 20260504184430 | 67 | 106 | 0.0 | 0.9 | 0.00 | 0.00 | 0.00 | 67 | 1015.8 |
| 20260504183929 | 67 | 103 | 0.9 | 2.6 | 0.00 | 0.00 | 0.00 | 68 | 1015.8 |
| 20260504183429 | 67 | 96 | 0.9 | 1.7 | 0.00 | 0.00 | 0.00 | 68 | 1015.9 |
| 20260504182929 | 67 | 57 | 0.0 | 0.9 | 0.00 | 0.00 | 0.00 | 68 | 1015.8 |
| 20260504182429 | 67 | 69 | 0.9 | 1.7 | 0.00 | 0.00 | 0.00 | 67 | 1015.9 |
| 20260504181929 | 68 | 96 | 0.9 | 1.7 | 0.00 | 0.00 | 0.00 | 67 | 1015.8 |
| 20260504181429 | 68 | 191 | 0.9 | 1.7 | 0.00 | 0.00 | 0.00 | 66 | 1015.7 |
| 20260504180929 | 68 | 110 | 0.9 | 1.7 | 0.00 | 0.00 | 0.00 | 66 | 1015.7 |
| 20260504180429 | 68 | 176 | 0.9 | 2.6 | 0.00 | 0.00 | 0.00 | 65 | 1015.7 |
| 20260504175929 | 69 | 63 | 0.9 | 2.6 | 0.00 | 0.00 | 0.00 | 64 | 1015.7 |
| 20260504175428 | 69 | 130 | 1.7 | 2.6 | 0.00 | 0.00 | 0.00 | 64 | 1015.5 |
| 20260504174928 | 69 | 110 | 1.7 | 2.6 | 0.00 | 0.00 | 0.00 | 63 | 1015.6 |
| 20260504173928 | 70 | 86 | 1.7 | 2.6 | 0.00 | 0.00 | 0.00 | 61 | 1015.5 |
| 20260504173428 | 70 | 46 | 0.9 | 1.7 | 0.00 | 0.00 | 0.00 | 60 | 1015.6 |
| 20260504172928 | 70 | 83 | 1.7 | 2.6 | 0.00 | 0.00 | 0.00 | 59 | 1015.6 |
| 20260504172428 | 70 | 88 | 1.7 | 2.6 | 0.00 | 0.00 | 0.00 | 59 | 1015.6 |
| 20260504171928 | 70 | 78 | 1.7 | 3.5 | 0.00 | 0.00 | 0.00 | 59 | 1015.5 |
| 20260504171428 | 71 | 64 | 1.7 | 2.6 | 0.00 | 0.00 | 0.00 | 58 | 1015.6 |
| 20260504170928 | 71 | 98 | 1.7 | 2.6 | 0.00 | 0.00 | 0.00 | 57 | 1015.6 |
| 20260504170428 | 71 | 113 | 0.9 | 2.6 | 0.00 | 0.00 | 0.00 | 56 | 1015.6 |
| 20260504160426 | 75 | 84 | 1.7 | 3.5 | 0.00 | 0.00 | 0.00 | 47 | 1015.8 |
| 20260504150925 | 75 | 101 | 1.7 | 2.6 | 0.00 | 0.00 | 0.00 | 55 | 1015.8 |
| 20260504150425 | 76 | 95 | 2.6 | 3.5 | 0.00 | 0.00 | 0.00 | 55 | 1015.8 |
| 20260504140925 | 76 | 66 | 1.7 | 4.3 | 0.00 | 0.00 | 0.00 | 49 | 1016.1 |
| 20260504140424 | 76 | 128 | 0.9 | 1.7 | 0.00 | 0.00 | 0.00 | 50 | 1016.1 |
| 20260504130423 | 78 | 58 | 0.0 | 0.9 | 0.00 | 0.00 | 0.00 | 47 | 1016.5 |
| 20260504110421 | 75 | 29 | 2.6 | 5.2 | 0.00 | 0.00 | 0.00 | 50 | 1017.4 |
| 20260504100420 | 72 | 66 | 3.5 | 5.2 | 0.00 | 0.00 | 0.00 | 52 | 1018.1 |
| 20260504081919 | 68 | 56 | 4.3 | 5.2 | 0.00 | 0.00 | 0.00 | 58 | 1018.3 |
| 20260504081419 | 69 | 66 | 3.5 | 5.2 | 0.00 | 0.00 | 0.00 | 57 | 1018.2 |
| 20260504080918 | 68 | 66 | 0.9 | 2.6 | 0.00 | 0.00 | 0.00 | 56 | 1018.2 |
| 20260504080418 | 68 | 65 | 3.5 | 5.2 | 0.00 | 0.00 | 0.00 | 58 | 1018.3 |